User: anonymous   Login
Location: Unspecified
(0.0000°N, 0.0000°E)
Time: 00:58:08
(UTC+00:00)
Language:

HUYGENS - Orbit

View from above orbital plane
View from above orbital plane
View from above satellite
View from above satellite

Ground track
Ground track

The orbit is defined by the following mean orbital elements,

1 55093U          26145.59738023 +.00000000 +00000-0 +22371-3 0 00008
2 55093  97.3261 212.7748 0010504 155.8727 204.3013 15.39616159    07
Epoch (UTC): 25 May 2026 14:20:13
Eccentricity: 0.0010504
inclination: 97.3261°
perigee height: 440 km
apogee height: 454 km
right ascension of ascending node: 212.7748°
argument of perigee: 155.8727°
revolutions per day: 15.39616159
mean anomaly at epoch: 204.3013°

The dashed part of the orbit path shows where the satellite is in the earth's shadow,  

DLR